Wind_Speed
2 2 2 4 7 8 8 9 8 4 5 4 3 2 3 3 4 4 4 5 9 6 4 7 5 4 5 5 7 6 5 6 6 6 6 5 5 5 5 5 6 6 5 6 8 9 11 13 14 15 17 18 18 16 13 12 11 9 8 7 6 5 4 5 5 4 6 7 7 7 6 6 6 6 7 9 10 11 11 11 10 9 8 7 7 7
3 2 8 10 10 9 8 8 6 3 4 4 3 0 2 3 5 5 3 6 8 5 2 5 5 4 5 5 5 5 7 8 9 8 8 7 6 5 6 7 6 5 2 3 6 8 10 12 13 15 18 20 19 18 15 14 12 10 9 8 7 5 5 5 5 4 5 5 6 7 7 7 6 6 5 6 8 9 9 8 8 7 7 6 7 8
2 4 13 10 5 5 6 6 6 3 4 3 3 0 3 2 3 4 1 4 6 2 1 5 6 3 3 4 5 7 8 8 8 9 8 7 6 6 7 7 6 5 4 4 6 8 11 13 14 16 18 20 20 19 17 15 13 12 10 9 7 6 5 5 6 5 5 5 5 6 8 7 6 6 5 4 5 6 6 6 6 6 6 6 8 9
2 7 11 5 6 6 6 5 6 4 2 3 3 1 3 3 0 2 3 4 5 2 2 6 4 2 2 2 4 7 8 5 6 8 6 6 7 8 7 6 6 7 6 6 5 6 10 13 14 16 18 20 19 18 18 16 15 14 12 10 8 7 6 6 7 6 6 6 5 7 9 8 6 6 5 5 4 4 5 6 6 6 6 7 8 10
8 9 3 4 7 8 5 4 5 5 3 3 5 4 3 1 1 2 1 4 3 2 2 6 4 4 2 4 4 5 5 5 5 6 7 7 7 7 6 6 7 8 8 7 7 6 8 12 15 17 19 19 19 19 19 18 17 15 12 11 8 7 7 7 8 8 7 7 7 8 10 9 7 6 6 5 4 4 5 6 6 6 7 8 9 10
11 9 2 3 4 6 5 5 6 7 3 2 4 6 6 4 6 4 5 5 4 3 2 4 3 5 3 4 7 4 4 7 5 6 9 8 7 6 7 7 8 8 8 8 8 7 8 12 15 16 18 19 20 21 20 19 17 15 12 11 9 7 7 7 8 8 8 8 10 10 11 10 9 7 6 6 5 4 5 5 6 7 7 7 8 9
6 5 3 6 6 6 6 4 5 8 4 2 4 9 8 8 9 7 5 4 3 2 4 3 4 3 4 4 8 6 7 9 6 7 10 8 7 7 7 8 7 7 7 7 7 7 9 12 14 15 18 21 22 22 21 19 18 15 13 13 11 9 8 8 8 9 9 11 11 11 11 11 10 8 7 7 6 4 4 5 6 7 7 6 6 6
4 1 1 5 3 4 5 4 6 9 7 2 5 8 8 7 9 8 5 4 2 2 3 3 4 1 3 5 6 6 8 8 7 9 10 8 8 8 8 8 8 8 8 7 7 8 9 13 16 18 21 23 24 22 21 20 19 16 14 14 13 10 10 9 9 11 11 12 11 10 10 10 10 9 8 8 7 5 5 6 7 7 7 6 6 6
3 2 3 4 2 3 5 5 8 12 6 4 3 7 6 5 5 6 5 3 1 2 3 4 3 2 4 5 3 3 8 8 9 11 11 10 10 9 9 9 9 9 9 8 9 10 10 15 19 21 23 24 23 22 21 21 20 17 15 15 13 12 11 10 11 12 11 10 10 10 9 8 8 8 9 10 8 6 6 7 7 6 6 6 6 6
3 4 6 6 3 5 5 4 9 12 5 3 7 9 6 6 5 5 5 3 3 3 3 5 3 2 4 5 2 3 5 8 10 10 10 10 10 10 9 8 8 7 7 8 9 10 13 18 20 21 22 23 23 22 22 21 20 19 17 15 14 13 12 12 12 12 12 11 10 9 9 8 8 8 10 11 10 8 7 7 6 6 6 6 5 4
4 2 3 4 4 5 3 2 4 8 7 7 7 7 7 6 5 4 2 3 4 2 5 6 5 5 1 5 2 3 5 7 9 7 7 7 8 9 9 8 8 8 7 8 7 8 10 15 17 17 19 21 22 22 22 21 21 20 19 17 15 15 13 12 12 13 12 11 11 9 8 9 10 10 11 11 11 9 8 7 6 6 6 6 5 3
6 2 2 2 2 5 6 5 4 4 7 7 5 5 5 4 4 4 3 3 3 3 6 4 2 5 1 5 5 5 6 5 8 8 9 10 9 9 8 8 9 8 8 8 7 7 8 10 12 15 18 19 20 21 22 23 22 22 20 18 17 16 14 13 13 13 13 12 12 10 9 10 11 11 12 12 11 11 10 8 7 7 7 6 4 2
5 2 2 3 1 5 6 6 5 4 4 5 5 5 5 2 3 2 3 1 1 3 3 1 3 3 4 7 6 7 8 7 8 10 11 11 10 9 8 8 8 7 8 8 8 8 8 8 11 15 17 18 20 22 23 24 24 23 22 20 19 18 16 14 14 14 13 13 12 11 10 11 12 12 12 12 11 11 10 9 9 8 7 5 3 1
4 5 4 3 1 2 6 6 3 0 1 4 5 5 4 2 3 1 3 1 2 3 2 1 2 1 4 5 5 8 9 8 9 9 10 11 11 10 9 8 8 8 9 8 8 9 8 9 12 16 19 20 21 23 25 25 25 25 24 22 21 19 17 16 15 15 14 13 12 11 10 12 12 13 13 12 12 11 10 10 10 9 7 5 2 1
1 5 2 2 2 2 4 4 5 5 4 3 3 5 5 4 3 2 3 2 2 2 2 3 2 2 1 2 5 7 7 5 7 6 6 7 7 6 6 6 7 8 8 8 8 9 9 12 16 18 20 21 23 25 25 26 26 26 26 25 23 21 19 18 17 17 16 14 12 11 11 13 13 12 12 12 12 12 11 12 11 9 7 4 2 2
1 4 7 4 2 5 5 3 4 7 4 0 2 5 2 4 5 1 2 4 3 1 1 2 2 3 4 4 5 4 3 1 3 4 4 4 4 5 6 7 8 8 8 8 9 9 10 13 17 19 20 22 24 25 26 27 27 27 27 27 25 23 21 20 19 19 18 16 14 13 12 13 13 13 13 13 12 12 12 13 11 9 6 4 3 3
2 4 7 3 1 4 6 4 3 4 3 1 2 3 4 4 7 4 1 0 3 3 1 1 2 5 2 2 5 6 6 5 4 4 4 4 6 7 7 7 8 8 9 9 9 10 10 13 17 20 22 23 24 25 27 28 29 29 28 28 26 24 23 22 20 20 20 19 17 16 14 14 15 15 14 14 14 13 13 13 11 9 7 5 4 4
3 3 7 2 1 2 2 5 5 4 5 5 2 5 3 2 5 4 2 3 4 2 2 2 1 5 2 1 5 6 5 4 3 4 3 4 5 7 7 7 8 8 9 9 9 9 9 12 16 20 22 24 26 27 28 29 29 29 28 28 27 26 25 24 22 21 20 21 20 18 17 16 15 16 16 15 14 14 14 14 12 10 8 6 6 6
3 1 7 3 2 2 3 7 4 5 3 5 4 4 3 2 1 1 2 0 1 1 3 4 2 2 1 1 4 2 2 3 3 4 5 5 7 7 7 7 7 7 7 7 7 7 8 11 16 20 21 24 25 26 28 29 29 28 28 28 28 27 26 25 24 22 21 21 21 20 19 17 15 16 17 17 16 15 16 16 14 11 9 8 8 7
2 2 5 5 1 2 4 4 2 4 3 3 3 2 2 2 3 2 2 2 2 3 1 2 3 1 3 4 3 4 6 6 5 5 6 8 8 8 7 7 7 7 8 8 9 9 9 12 18 22 23 24 25 26 26 27 27 28 28 28 28 28 26 25 25 24 22 22 22 21 20 17 16 16 18 17 17 17 17 16 14 12 11 10 9 9
3 3 3 5 4 2 1 2 5 7 3 2 3 2 0 2 2 2 1 2 3 4 2 1 2 3 5 4 4 6 7 5 6 6 7 8 9 8 8 7 8 8 8 8 9 10 9 12 17 21 22 23 25 25 25 25 27 28 28 28 28 28 27 26 26 25 24 23 23 23 22 19 17 17 18 18 18 18 18 17 15 13 12 11 11 10
2 2 3 2 4 0 4 4 4 7 7 5 4 4 3 3 4 3 1 1 1 3 2 4 2 5 5 2 3 6 5 5 6 5 6 7 9 9 8 8 9 9 9 9 9 9 8 10 15 18 19 21 22 22 24 25 26 27 27 28 28 28 28 28 27 26 25 24 24 24 23 21 18 18 18 19 20 20 19 18 16 15 14 13 12 11
3 4 2 1 3 5 7 5 1 4 6 6 3 3 4 3 4 5 3 3 1 2 1 4 3 4 5 2 4 5 5 6 5 6 6 6 7 8 9 9 9 9 9 9 8 7 7 9 13 16 18 20 20 21 23 25 26 27 28 29 28 28 30 29 28 27 26 25 24 24 24 22 21 20 19 20 21 22 22 20 18 16 16 15 14 13
2 4 2 2 4 5 6 4 3 3 6 7 2 1 4 3 3 5 5 4 3 1 1 4 2 4 5 4 5 5 5 5 3 3 6 6 5 5 6 7 8 8 7 7 7 6 6 9 12 14 16 18 20 21 23 24 26 27 28 28 29 29 31 30 29 28 27 27 26 25 25 24 23 22 22 21 21 23 23 21 19 18 18 17 17 15
1 1 3 2 4 5 5 5 5 4 3 3 1 1 2 4 5 3 2 4 3 3 4 5 1 5 4 4 8 10 11 10 9 8 5 5 5 5 5 6 6 7 6 7 7 7 7 9 10 12 16 18 20 22 23 24 25 26 27 28 28 29 30 30 29 28 28 28 27 26 26 26 25 24 24 23 22 23 24 23 21 20 20 20 19 18
3 2 3 4 3 2 2 1 3 2 1 2 1 4 3 5 6 3 2 4 2 3 3 4 4 5 5 8 12 13 13 12 12 12 10 7 5 5 5 4 3 2 4 6 7 7 8 8 8 10 14 17 19 21 22 23 24 24 25 27 28 29 29 30 30 29 29 29 29 28 28 28 27 27 26 25 23 23 25 25 23 22 22 22 21 20
4 3 2 6 6 6 6 5 5 2 2 0 2 5 5 2 3 4 4 2 3 3 2 3 5 1 6 11 13 12 12 11 11 12 11 10 8 6 3 3 3 3 3 4 5 5 5 5 5 6 10 14 16 18 21 22 24 25 26 27 28 28 29 29 30 29 29 30 30 30 30 30 30 29 28 27 25 24 25 26 26 24 24 24 24 23
5 4 1 4 4 2 5 4 4 3 5 2 1 4 6 5 4 5 4 2 4 6 1 5 3 4 5 9 11 12 10 8 9 11 11 9 9 7 2 3 5 5 5 6 6 7 7 7 6 7 11 14 16 19 21 23 25 26 27 28 28 29 29 29 29 29 30 30 30 31 32 31 31 31 30 29 27 26 26 28 28 27 26 26 27 26
6 2 0 3 4 5 3 3 3 5 5 3 4 4 5 6 6 6 3 2 2 5 4 3 5 5 4 7 9 10 9 7 7 9 8 8 10 9 7 6 4 3 2 3 3 4 5 6 7 8 12 16 18 19 20 22 24 25 26 27 27 28 29 29 29 29 29 30 31 32 33 32 32 32 31 30 29 28 28 28 29 29 29 29 29 29
5 2 0 3 4 8 9 8 6 6 5 5 8 7 6 8 8 7 3 2 3 5 4 7 10 6 3 5 7 8 7 5 5 7 10 12 13 12 11 10 8 7 5 3 3 3 4 5 5 6 9 13 16 18 18 20 22 23 25 26 26 28 29 29 29 29 30 30 32 32 33 33 33 32 32 32 32 32 31 30 30 30 30 30 30 30
4 2 2 2 5 6 8 9 8 6 5 6 8 8 7 7 7 6 4 3 5 6 4 7 9 6 3 5 6 6 6 6 8 12 13 13 13 13 13 12 11 10 9 7 5 4 2 2 3 5 7 9 12 15 18 19 20 22 24 25 27 29 30 30 29 30 30 31 32 33 33 33 34 33 34 34 34 34 33 32 32 32 31 31 31 31
4 3 1 4 5 2 6 9 10 8 5 6 7 9 7 6 5 5 5 5 4 3 3 5 6 2 3 4 5 7 9 12 13 13 12 11 13 14 13 13 12 11 11 10 9 8 7 5 3 1 4 5 9 14 18 19 20 22 24 26 28 29 29 30 30 31 32 33 33 33 33 34 34 34 34 35 34 35 35 34 34 34 33 33 33 33
3 4 2 4 4 2 4 7 7 7 6 3 4 4 4 3 4 5 6 7 4 3 3 3 3 0 3 3 5 9 11 13 13 12 11 10 11 12 13 13 12 11 11 11 10 10 9 8 8 9 8 7 7 11 15 18 20 22 25 27 28 27 27 29 31 32 33 34 34 34 35 35 35 35 35 35 35 35 35 34 35 35 35 35 34 34
3 5 3 3 4 1 3 6 5 5 2 3 4 1 2 3 4 6 6 8 6 4 4 3 3 3 3 3 5 10 11 11 11 10 9 9 9 10 13 13 12 11 11 11 10 10 9 9 11 13 14 14 13 10 10 16 21 23 24 25 25 26 27 29 31 32 33 34 34 34 35 34 34 35 36 36 35 34 34 35 36 37 37 36 34 34
4 5 2 1 4 2 3 7 4 4 4 2 1 4 4 4 6 8 8 8 8 7 6 5 5 4 4 3 3 5 8 9 10 10 10 10 8 9 12 12 11 11 11 10 11 10 10 12 14 15 17 19 19 16 9 9 18 21 22 23 25 26 27 28 29 31 32 33 33 33 33 33 33 35 36 36 35 34 35 36 37 37 37 36 35 35
5 5 2 2 3 3 3 5 2 5 3 0 3 3 3 2 3 5 6 6 8 6 4 4 5 4 4 3 2 1 4 5 8 10 10 10 9 9 9 7 8 10 9 9 10 10 13 16 16 16 18 18 20 22 19 12 9 16 20 23 24 24 25 26 27 29 31 32 33 33 33 33 33 35 36 35 34 34 35 37 37 37 36 35 35 36
5 4 3 2 2 3 4 3 1 2 2 2 1 1 1 1 1 3 2 3 4 4 3 3 4 4 4 3 2 2 3 3 6 9 9 9 8 7 6 5 6 8 9 11 13 14 17 19 19 19 20 20 23 26 25 22 12 9 17 20 20 20 23 25 27 28 29 31 32 33 32 33 33 34 35 35 33 34 36 37 37 36 35 34 34 36
4 2 4 4 2 3 5 3 1 1 3 4 3 1 1 2 3 4 3 1 2 2 3 2 2 4 4 3 2 2 3 3 5 5 6 7 6 5 5 6 8 10 12 14 18 19 21 21 21 22 23 25 27 27 25 25 21 11 6 12 16 19 21 22 22 23 26 29 31 31 31 32 33 34 35 34 34 36 38 38 36 34 33 33 34 35
6 3 3 5 2 2 5 4 3 3 3 3 4 3 2 2 3 3 1 1 1 1 2 1 2 4 4 4 3 3 3 3 3 2 4 5 5 5 4 4 8 11 13 15 18 20 21 20 21 23 26 27 27 26 25 25 25 22 15 7 4 8 13 15 17 19 21 23 25 28 30 31 32 34 34 34 35 36 34 30 27 25 25 27 30 34
6 4 3 4 3 3 4 3 2 3 2 1 3 3 2 2 4 3 1 3 3 1 2 3 3 5 5 5 4 5 4 3 2 1 3 4 4 5 4 4 7 9 11 15 18 19 18 18 20 21 24 25 25 26 26 25 25 24 21 16 12 8 7 10 12 13 16 19 20 22 26 29 30 32 33 33 34 32 28 26 27 25 24 26 29 33
3 3 2 3 3 3 4 3 1 2 1 1 3 5 2 2 3 3 4 5 3 2 3 4 4 4 5 5 5 5 4 2 1 2 3 4 4 5 7 9 11 11 12 13 16 16 16 18 19 20 21 22 23 25 26 25 24 24 22 21 18 14 11 11 13 13 12 14 16 18 20 23 27 31 33 34 33 30 29 33 35 34 33 32 33 34
1 1 1 2 3 2 3 3 0 2 2 2 4 5 1 3 3 3 3 2 3 4 3 4 4 4 4 5 5 4 3 2 3 3 5 6 6 6 8 11 13 13 14 15 16 17 17 17 20 22 23 23 22 22 23 24 23 22 23 23 23 20 16 12 13 15 14 13 12 12 15 18 21 25 29 31 32 32 33 34 33 30 29 30 31 33
2 2 0 1 2 2 2 2 1 3 2 3 3 2 0 2 3 2 2 3 3 4 3 4 4 4 3 4 5 5 5 4 5 5 6 7 7 7 9 11 12 12 14 16 17 18 18 18 20 22 24 25 25 22 20 20 20 20 21 22 21 21 19 18 17 16 15 15 14 12 11 12 14 17 21 24 26 29 31 31 28 26 26 28 29 30
1 2 1 1 1 2 3 2 2 3 2 3 2 1 0 1 1 2 3 3 3 3 2 3 4 3 3 5 6 6 7 7 7 7 7 8 8 8 10 12 14 14 15 17 18 19 19 19 19 21 24 27 28 26 23 21 19 19 20 19 19 19 19 19 19 19 18 17 17 15 12 10 9 9 12 15 19 21 24 25 25 25 25 26 26 27
1 2 3 2 2 2 3 3 3 3 2 2 3 3 2 3 3 4 4 3 3 2 2 2 4 4 4 6 8 8 7 6 7 7 7 7 7 8 9 13 15 16 17 19 20 20 19 18 19 21 23 26 27 26 25 24 23 22 21 19 17 17 18 18 19 20 19 19 19 17 14 11 9 7 6 8 11 13 17 20 21 21 23 24 24 27
1 1 3 3 2 2 3 2 1 1 2 3 4 4 4 4 5 5 5 4 3 3 3 2 4 4 5 6 8 8 6 6 7 7 7 7 7 8 11 14 17 19 20 21 21 21 20 20 22 23 23 25 27 26 24 24 24 23 24 22 18 16 16 17 19 20 20 19 19 19 17 14 12 10 8 7 6 8 12 16 17 18 21 23 25 27
1 1 4 4 2 2 3 4 3 3 3 4 5 5 5 5 5 4 4 4 3 4 4 4 5 6 6 7 8 8 6 6 7 7 7 7 8 8 11 13 16 18 20 20 20 21 21 22 22 22 22 24 26 26 25 25 25 24 24 25 22 18 16 16 18 20 20 19 18 18 17 16 15 13 10 8 8 9 11 14 16 17 20 22 24 24
1 2 3 2 2 3 3 2 3 5 4 4 4 4 4 5 5 5 5 5 6 6 7 7 7 7 6 7 7 8 8 7 7 7 7 6 6 8 11 13 15 18 19 20 21 22 22 22 21 21 21 23 25 26 26 26 26 25 25 25 24 21 19 17 17 18 18 18 17 17 17 16 15 14 12 10 10 11 12 13 14 15 18 20 21 21
1 2 2 3 4 5 4 3 4 6 6 5 4 3 3 3 4 5 6 7 8 7 7 9 9 8 8 7 6 8 9 8 6 7 7 6 6 8 11 14 16 17 19 20 21 21 21 20 20 21 22 23 24 26 26 25 26 26 25 25 25 23 22 20 18 17 17 16 16 16 16 16 15 14 13 13 12 11 11 11 11 13 16 17 18 20
1 2 2 4 5 3 2 3 3 5 5 2 2 2 2 2 4 7 7 6 6 5 6 9 10 10 11 10 9 9 8 7 7 7 7 7 8 10 13 15 17 18 18 19 20 21 21 20 20 20 22 23 25 25 25 24 25 26 26 26 26 26 25 23 21 20 19 18 18 17 15 15 15 15 14 14 13 12 10 10 9 10 12 14 15 17
2 3 2 3 4 3 4 4 4 4 4 1 1 4 4 5 8 9 7 6 6 5 7 9 9 9 10 11 13 12 8 7 9 10 8 8 12 15 16 16 17 18 18 18 19 20 20 20 20 20 21 23 24 25 24 23 24 26 27 27 27 27 27 26 25 24 23 22 21 19 17 16 15 14 14 14 13 12 11 10 9 8 9 10 12 13
Wind_Direction
111 120 214 211 216 223 219 205 205 192 137 138 127 124 185 213 260 239 241 213 160 145 197 178 161 175 184 194 199 186 169 192 211 212 221 217 214 217 215 221 214 217 231 225 220 215 207 205 201 198 192 185 181 182 186 185 182 178 172 171 169 166 164 163 166 151 140 136 133 132 115 93 86 89 88 87 93 98 97 93 89 86 83 78 82 89
87 162 236 229 214 216 223 219 207 145 116 121 118 43 279 225 250 256 227 195 162 140 182 160 155 189 192 191 195 173 176 206 210 209 219 216 216 216 214 223 219 220 215 179 195 198 199 200 195 191 186 183 183 184 188 189 187 183 181 180 180 180 176 174 179 178 166 153 146 144 127 103 92 96 99 94 95 96 93 88 83 80 81 83 84 86
86 234 247 239 188 196 233 237 227 188 130 110 113 115 298 267 264 299 335 151 155 128 122 163 167 221 233 184 181 186 195 212 208 208 217 212 218 222 217 220 216 216 207 192 193 187 191 193 189 187 185 185 188 188 190 192 191 190 187 185 188 193 190 188 191 196 193 172 157 155 141 119 99 98 109 110 100 95 88 80 78 80 86 92 86 80
199 246 245 220 143 171 222 233 234 237 166 131 131 148 280 290 300 299 351 95 130 102 132 157 148 303 273 164 188 208 211 224 210 207 216 209 215 222 221 216 205 207 210 209 205 189 186 187 188 189 187 187 188 190 191 192 194 195 192 189 191 198 201 205 205 207 208 184 157 154 147 132 115 108 117 126 114 95 84 76 79 90 97 95 89 83
234 247 216 128 156 176 188 198 206 222 240 201 167 183 238 284 101 192 128 93 98 21 88 112 60 317 232 171 218 214 207 236 215 202 217 220 218 217 219 218 207 205 203 201 203 195 185 185 190 192 190 187 188 191 193 194 195 195 194 190 190 201 206 211 208 206 211 189 157 151 148 138 130 122 124 133 127 106 92 80 83 104 109 99 94 91
248 252 175 137 177 172 173 189 193 190 212 265 198 197 190 131 92 113 123 96 66 336 265 111 72 301 277 203 221 185 185 226 211 204 222 223 218 210 214 218 211 209 203 198 197 192 190 189 190 193 192 189 191 195 196 195 195 195 194 189 187 196 196 196 197 196 196 179 158 153 153 148 142 137 134 133 130 119 103 88 94 116 121 109 103 100
259 261 196 212 203 179 196 222 213 180 147 327 224 191 172 130 112 130 135 96 101 236 263 109 127 265 313 256 227 182 190 221 208 215 228 223 216 211 214 214 206 207 201 195 192 186 190 188 186 192 194 193 195 197 198 197 197 196 195 189 187 189 185 184 186 182 175 168 161 158 159 158 155 154 149 139 132 120 112 113 115 122 126 118 112 107
242 292 180 217 193 165 197 236 217 168 132 257 226 168 147 124 135 157 132 92 160 200 338 32 115 180 302 269 241 182 186 223 222 224 230 224 219 215 215 212 201 200 194 186 187 187 191 190 189 192 194 196 198 197 198 198 199 199 196 189 189 189 186 186 184 178 172 168 169 168 166 168 168 168 162 152 145 133 127 134 132 131 130 121 110 103
221 207 206 193 149 165 203 226 189 155 146 243 190 124 118 106 130 144 110 93 98 71 341 315 100 121 271 277 300 158 183 223 228 225 225 219 218 216 214 212 202 197 189 184 187 189 191 193 194 194 194 197 198 197 199 200 200 200 196 191 192 192 188 188 187 183 180 179 181 182 180 179 178 177 172 166 163 156 148 147 144 141 138 128 113 102
242 218 199 160 155 206 219 228 179 158 162 181 109 91 79 70 73 82 94 104 54 47 268 257 159 131 273 281 0 112 195 223 222 226 225 213 214 215 212 208 199 191 186 189 192 191 193 195 196 193 192 195 196 197 200 201 200 199 197 195 195 192 188 191 193 190 190 193 194 196 197 191 183 180 176 175 175 174 170 166 159 151 147 144 131 114
282 268 179 159 185 194 153 85 155 150 138 123 96 76 66 46 39 50 61 85 63 345 268 248 187 136 305 280 221 169 215 213 198 218 231 212 210 214 208 200 193 187 185 188 189 189 189 191 192 190 191 194 195 197 200 201 201 199 198 198 195 192 190 195 199 197 198 201 203 209 212 202 189 183 182 181 182 185 187 183 174 161 154 154 148 133
326 2 201 240 175 133 100 62 51 101 116 108 88 85 83 19 10 30 358 39 84 266 272 263 163 119 141 265 240 228 250 223 182 198 216 211 209 210 202 195 191 185 179 178 178 176 169 173 182 186 191 193 192 195 198 199 200 199 198 198 196 194 194 199 201 200 202 204 209 218 221 209 196 191 190 187 187 191 191 186 178 166 160 160 160 154
321 250 263 331 66 128 106 77 47 28 57 88 97 95 86 18 7 13 322 342 187 241 264 184 112 113 230 251 253 250 254 236 199 196 203 206 207 205 198 191 186 177 175 175 174 173 170 172 179 183 188 191 192 195 198 199 198 198 198 197 197 197 196 199 199 200 204 209 217 224 220 209 200 197 197 193 192 191 188 183 176 169 166 169 171 188
326 311 345 29 298 176 122 117 113 114 150 137 137 122 118 106 66 304 270 299 261 260 294 241 186 271 283 264 243 244 248 232 211 204 199 198 200 199 195 182 173 174 176 177 176 176 180 182 182 185 188 190 193 197 198 199 198 197 197 197 199 200 198 197 198 201 206 213 221 223 213 204 200 201 200 196 192 187 182 179 175 173 173 176 187 261
9 314 283 153 233 193 142 156 159 142 137 161 149 122 136 154 139 219 227 184 227 255 307 298 231 186 246 252 231 243 265 246 212 213 204 200 196 177 161 155 164 177 178 177 180 182 185 185 184 187 189 191 195 197 198 200 199 197 197 197 200 201 199 199 199 203 208 213 219 219 210 205 204 204 201 196 192 187 182 179 178 178 179 184 208 245
81 268 254 257 235 173 169 190 126 103 95 226 119 107 147 185 142 113 175 167 177 170 265 281 233 212 221 264 290 307 337 3 169 182 185 186 155 126 143 164 172 180 180 178 183 185 187 186 186 188 190 193 196 197 198 200 200 199 198 199 201 202 201 201 201 204 207 210 216 216 211 210 211 210 205 199 194 190 185 183 182 182 183 191 209 215
77 274 273 306 305 183 176 168 110 102 133 147 121 171 219 172 122 109 139 81 62 90 235 281 278 297 314 285 316 5 38 49 98 141 165 168 151 149 174 181 178 182 182 183 186 186 185 185 189 191 192 193 195 196 199 200 202 202 201 201 202 204 204 203 204 206 207 209 214 216 213 214 217 218 213 204 197 193 190 188 186 187 192 198 208 211
138 280 285 278 255 267 150 107 57 39 115 126 188 209 199 104 100 112 111 10 38 96 287 341 290 302 17 89 323 7 49 57 97 134 131 138 162 180 191 188 184 183 180 183 185 184 184 186 191 193 194 195 196 197 200 202 203 204 204 204 204 205 206 205 204 205 207 210 213 215 216 218 221 221 218 211 203 197 194 192 190 192 199 206 216 218
138 296 293 274 174 310 36 79 42 341 52 124 180 172 117 123 167 82 106 144 69 113 297 323 296 268 150 227 312 339 175 181 154 147 145 164 187 198 202 194 181 167 165 177 181 181 185 190 193 194 195 198 198 199 201 202 203 205 207 208 208 209 209 207 205 204 207 210 213 215 218 222 225 221 218 214 210 204 198 194 195 197 203 211 221 222
113 129 283 299 32 36 27 75 151 270 335 52 116 105 76 132 161 145 133 163 130 128 231 330 356 293 225 227 237 239 235 211 177 173 182 195 200 200 200 190 177 175 178 183 186 189 190 192 195 195 195 196 197 199 201 201 201 204 207 209 210 212 213 212 209 207 207 209 211 215 218 223 227 222 217 214 213 210 204 199 200 202 206 211 218 223
69 116 234 297 345 51 147 185 179 192 197 84 113 160 350 70 126 153 78 71 114 133 161 100 46 280 260 215 211 256 264 231 203 197 197 202 203 204 202 189 185 188 187 188 189 191 191 190 194 196 196 196 197 198 199 199 202 205 208 210 211 213 214 214 213 211 210 209 211 215 218 222 226 223 219 218 219 217 209 206 206 205 208 213 219 225
122 140 185 287 336 241 236 256 202 182 173 150 157 181 168 128 123 119 74 311 91 103 159 143 136 267 266 223 250 279 283 260 242 225 221 217 204 202 201 193 191 189 189 195 193 189 189 188 189 190 191 194 195 195 196 198 201 204 207 210 211 213 214 215 216 214 214 213 214 216 219 222 224 223 222 223 225 223 217 214 212 210 213 216 221 229
139 112 110 268 259 234 253 277 248 157 136 121 131 156 145 133 118 122 177 227 87 58 154 116 105 262 264 298 320 310 293 271 252 232 239 241 220 209 203 193 192 195 194 192 187 183 180 179 181 183 185 190 194 196 196 197 200 203 207 209 210 212 214 216 217 217 217 217 218 219 219 222 223 222 224 227 228 226 222 219 217 217 218 219 223 229
85 81 75 296 298 300 300 320 3 47 87 88 57 92 129 138 126 140 175 175 122 139 149 84 73 265 278 322 349 351 338 330 331 275 247 248 256 246 223 202 193 194 191 178 169 164 158 162 170 176 183 189 193 196 198 199 201 204 207 209 210 212 214 216 217 218 218 219 221 221 221 223 224 224 226 228 229 227 224 222 220 220 222 222 225 227
97 88 97 63 4 348 343 352 350 348 42 87 67 6 97 113 104 120 148 89 93 182 144 107 180 248 268 334 4 8 6 4 3 352 315 268 258 249 238 231 209 188 174 165 158 152 155 163 170 177 185 190 193 195 198 200 203 205 208 210 211 213 215 216 218 219 219 220 223 223 223 225 226 227 228 229 230 228 225 223 222 223 224 224 226 226
131 135 121 115 123 170 186 251 253 251 4 57 53 12 25 100 110 136 129 74 92 192 127 125 198 249 301 355 4 4 5 0 353 351 345 323 292 256 231 227 224 189 164 165 162 160 165 170 174 180 185 191 194 195 197 201 203 206 209 212 214 215 216 216 218 219 220 221 222 224 226 227 227 229 230 231 232 230 226 225 224 225 226 226 226 225
109 80 99 139 153 183 189 217 241 184 106 66 348 356 352 27 87 102 98 105 181 147 79 207 195 235 345 354 355 353 358 355 346 349 350 342 330 307 247 167 129 98 116 138 142 145 148 149 153 168 181 191 197 198 200 202 204 206 209 212 215 217 217 218 218 219 221 221 223 225 227 228 228 229 231 232 234 233 229 227 227 228 229 228 228 227
101 66 75 133 126 174 186 235 293 66 101 125 11 352 344 352 32 84 96 207 166 113 45 255 181 74 359 350 351 347 349 348 347 351 348 342 336 327 326 111 110 113 130 144 151 155 153 148 146 157 176 189 195 200 203 204 206 208 210 212 214 216 218 219 219 219 221 221 223 225 227 230 231 231 232 233 235 236 234 231 230 232 232 230 229 231
108 86 160 110 51 33 43 354 10 87 104 88 61 30 10 22 48 86 95 282 148 127 194 206 99 74 6 356 354 348 348 345 343 346 348 357 356 357 18 40 44 51 91 128 145 153 151 156 166 171 179 186 192 198 203 205 207 209 211 213 214 215 218 219 220 220 221 221 223 225 228 231 232 233 233 234 235 237 236 235 235 236 235 232 232 234
109 63 284 114 58 29 25 15 29 70 88 61 44 34 36 54 67 78 70 346 61 102 142 116 95 81 30 6 356 354 353 343 352 9 17 20 15 16 26 29 21 14 19 37 57 89 126 156 176 182 186 190 193 197 201 205 208 210 212 213 214 215 218 219 220 221 221 222 225 227 230 231 232 233 234 234 235 236 237 238 238 239 238 236 235 237
86 101 269 84 64 11 10 19 15 31 82 79 48 29 26 43 58 62 42 19 60 80 98 100 94 79 32 6 2 14 21 22 30 30 28 25 20 23 29 28 24 21 18 20 25 42 84 145 171 186 201 204 203 203 204 206 208 210 214 215 215 216 217 218 219 222 223 225 227 228 230 231 232 233 234 234 235 235 236 238 239 241 241 239 238 238
70 122 290 57 76 321 358 20 356 354 59 73 44 31 24 28 52 63 48 39 75 108 86 79 89 68 338 343 16 40 45 45 40 32 29 27 23 27 29 26 24 22 19 18 15 16 18 11 3 305 258 241 225 219 215 210 208 209 212 215 218 219 217 216 218 221 224 227 229 229 229 231 232 233 234 234 234 235 236 237 238 240 241 240 238 237
85 118 122 81 104 254 0 26 347 349 33 12 340 22 47 63 79 79 60 50 68 113 100 92 111 52 316 339 46 54 49 49 47 36 30 26 23 29 33 29 27 23 21 21 18 17 18 11 7 2 347 326 283 249 234 223 217 216 216 217 219 219 217 217 219 222 225 228 229 229 230 230 231 232 233 234 234 235 235 235 236 237 238 239 239 237
78 101 135 120 115 234 353 37 15 351 357 261 276 353 103 109 96 90 68 48 43 58 79 88 68 28 356 2 56 68 64 58 52 44 37 31 26 31 34 32 29 24 21 20 17 16 14 10 12 11 5 358 347 317 264 238 230 227 225 223 221 219 218 219 220 222 226 228 229 230 230 230 230 231 234 235 234 234 233 233 234 235 236 237 236 234
79 92 126 98 103 128 31 54 38 297 257 220 352 47 77 84 88 88 72 52 43 43 52 57 39 14 3 1 42 88 89 78 62 49 40 34 30 33 34 30 24 21 20 16 12 11 9 9 11 11 10 8 3 1 344 266 243 235 231 226 222 221 221 221 223 224 227 229 230 231 231 230 231 232 234 235 234 233 232 232 232 233 234 233 233 233
120 121 114 61 91 121 101 102 164 253 255 283 11 27 58 43 55 74 60 38 39 39 36 46 34 3 354 352 314 177 138 102 64 46 35 29 29 34 34 26 14 14 14 8 4 4 5 7 10 13 15 15 11 12 13 355 279 244 237 231 226 225 223 222 225 228 229 231 232 232 232 231 232 234 235 235 234 233 233 233 232 232 231 230 231 232
118 130 112 74 93 130 127 137 175 293 281 247 268 299 199 195 174 133 99 31 33 38 31 39 27 356 343 331 296 205 165 103 50 36 26 20 21 27 33 28 17 14 10 5 4 6 10 12 15 19 22 24 22 19 17 13 355 273 244 235 229 229 230 229 230 232 233 234 235 234 234 233 233 235 236 235 233 233 234 235 234 233 230 228 228 228
73 133 153 141 138 109 104 101 72 34 256 226 189 199 219 178 179 167 132 58 26 29 27 41 20 355 349 338 333 139 127 67 40 22 7 4 1 11 25 26 22 15 8 7 6 4 8 11 13 17 23 26 25 23 24 25 24 14 290 249 235 231 234 237 242 246 245 244 243 241 239 237 236 236 237 236 234 235 236 236 236 235 231 228 227 228
46 39 104 113 117 115 113 129 170 193 232 216 171 186 236 199 178 159 79 0 197 27 18 59 30 4 358 350 8 94 102 70 62 24 352 344 337 347 358 13 24 15 5 11 12 3 2 8 13 18 23 23 20 19 22 28 34 39 37 15 292 246 245 251 257 259 258 257 256 253 249 244 240 239 239 239 238 238 238 238 238 240 239 236 233 233
32 19 55 112 156 168 141 145 200 209 219 211 205 237 252 166 136 122 186 235 197 143 30 61 44 12 10 7 22 67 75 72 94 35 330 317 322 332 331 352 19 8 357 12 17 5 3 13 16 18 20 18 17 18 19 22 30 36 38 37 35 22 344 320 312 295 275 269 268 264 258 253 247 244 243 243 244 243 240 237 238 239 239 239 240 240
17 16 51 135 150 160 148 143 247 265 267 278 274 276 258 145 128 148 209 217 166 90 45 60 57 26 30 34 43 67 63 37 21 320 317 330 343 343 346 1 14 7 357 10 15 6 6 15 18 19 18 15 18 22 21 20 24 26 27 30 28 20 8 357 355 347 320 293 281 272 266 261 254 250 248 247 246 244 241 240 239 237 233 231 232 234
126 53 50 118 114 125 137 119 250 264 280 316 299 288 259 152 177 201 205 186 105 94 73 68 63 41 43 54 64 78 66 5 351 350 356 5 5 0 4 12 16 12 7 13 17 13 13 17 21 23 21 18 22 26 23 21 21 20 21 22 17 11 8 3 359 360 358 345 325 302 287 277 268 260 254 250 246 242 242 243 241 240 239 236 231 229
154 123 121 147 129 114 101 94 170 214 263 335 325 299 44 142 190 175 114 79 83 90 81 74 67 47 53 68 69 72 68 46 33 31 32 29 23 21 24 26 26 21 18 19 21 20 21 23 25 26 25 25 28 30 26 22 17 16 16 14 10 10 11 9 3 359 359 1 359 349 332 312 293 278 267 258 250 243 243 244 241 240 244 243 235 227
63 109 194 218 124 116 137 156 195 208 265 332 27 105 289 294 219 113 90 81 83 76 67 75 64 41 59 83 80 75 70 60 49 45 43 37 29 26 27 28 29 28 27 26 26 27 29 29 28 29 30 31 33 34 31 25 17 13 11 7 3 6 8 8 6 2 358 358 360 0 0 353 332 306 284 269 258 249 248 250 246 240 240 239 231 223
337 162 168 147 74 118 160 191 212 214 257 338 51 68 10 8 50 71 70 66 60 34 9 65 63 43 55 83 84 75 66 59 53 48 45 40 33 28 28 28 28 28 28 28 29 29 30 31 31 31 30 30 33 34 32 30 24 15 8 3 358 358 0 1 359 358 357 356 354 354 357 0 0 356 336 298 277 268 267 264 254 242 238 236 229 222
258 174 127 111 120 117 88 66 45 38 14 26 45 43 26 32 47 56 58 51 31 3 356 37 64 60 62 76 81 73 61 57 55 47 42 42 36 30 32 32 30 29 28 26 25 26 29 31 31 29 27 26 27 28 27 27 26 18 11 9 5 356 354 356 356 356 356 354 353 353 353 353 352 352 350 339 325 310 293 279 264 247 238 233 228 224
300 85 82 86 117 110 58 20 10 30 35 39 48 45 33 28 26 38 52 44 21 16 22 36 56 67 67 71 79 78 66 58 58 50 39 39 36 28 29 29 27 27 27 25 24 26 29 30 29 25 22 20 21 22 21 21 21 18 14 14 13 5 358 355 354 355 356 355 354 354 353 352 350 347 348 348 343 330 308 290 274 257 241 231 226 224
335 79 78 65 62 85 96 78 58 62 53 39 50 60 48 32 23 26 43 51 47 43 41 41 48 60 62 60 71 79 69 55 56 56 46 39 35 28 27 26 23 24 25 25 27 30 29 26 24 22 19 16 15 17 19 19 18 17 16 15 15 13 9 3 357 353 352 352 353 351 349 347 344 340 338 336 330 323 313 301 287 269 253 242 234 229
311 48 95 118 91 75 83 92 85 76 61 41 33 37 27 20 34 48 59 68 70 71 68 59 54 59 64 59 61 70 67 52 45 54 51 40 32 28 26 26 24 23 23 23 25 29 28 24 20 19 16 14 13 15 17 19 20 19 17 15 15 15 12 7 360 354 350 347 347 346 342 340 336 331 327 326 323 318 313 306 294 274 260 251 243 237
30 54 82 107 102 106 144 159 139 106 90 60 336 31 56 109 105 91 85 82 80 83 84 74 64 58 58 57 58 65 66 52 39 48 52 41 29 25 25 26 25 22 22 22 23 25 25 22 19 18 14 12 12 13 14 17 19 19 18 17 15 14 12 8 2 357 354 350 346 343 338 334 332 328 323 322 322 318 312 307 298 281 264 254 246 242
129 151 165 118 109 131 161 166 157 113 104 137 100 95 116 128 107 96 94 89 79 74 75 75 71 61 51 49 54 62 66 53 43 46 47 34 26 25 25 26 24 19 16 18 19 18 17 17 17 15 11 10 11 11 12 15 18 18 17 17 15 13 12 10 6 0 357 353 348 344 339 332 327 324 322 320 319 315 308 300 293 285 273 261 251 245
Height
747 758 763 761 758 755 753 753 753 755 757 760 764 767 769 771 769 763 760 757 757 767 774 775 776 775 774 776 778 778 778 780 781 781 781 781 781 782 782 782 782 782 781 780 782 783 784 785 786 787 788 789 791 792 793 794 795 796 797 798 799 800 801 801 802 803 803 804 804 804 804 805 805 805 805 805 805 805 805 805 804 804 804 804 803 803
750 762 760 750 749 748 748 749 752 758 759 760 765 768 769 770 766 758 757 757 755 763 773 774 776 775 772 774 777 778 779 779 778 779 780 779 780 780 780 781 780 780 780 780 781 782 783 784 785 787 787 788 790 791 793 794 795 796 797 798 799 800 801 802 803 804 804 805 805 805 806 806 806 806 806 806 806 806 806 806 806 805 805 805 804 804
761 763 750 742 746 747 747 748 751 757 759 762 765 768 767 764 762 757 756 759 757 762 772 774 777 777 772 772 775 776 776 775 774 775 777 778 779 780 779 779 779 780 780 780 781 781 782 783 785 786 787 788 789 791 792 794 795 796 797 798 799 800 801 802 803 804 805 806 806 806 807 807 807 807 807 807 807 807 807 807 807 807 806 806 806 805
767 754 740 740 744 746 749 750 751 755 759 762 765 767 766 762 763 762 761 764 761 762 770 773 777 778 774 773 774 774 773 772 772 772 774 775 776 777 777 777 778 779 780 780 780 781 782 783 784 785 786 788 789 790 792 793 795 796 797 798 799 800 801 802 803 804 805 806 807 807 808 808 808 808 808 808 808 808 808 808 808 808 808 807 807 807
756 740 734 739 741 744 750 752 754 758 761 762 763 765 762 760 764 765 765 766 764 765 767 771 782 780 774 775 773 771 772 772 771 772 772 772 773 774 775 775 776 777 777 779 780 780 781 782 783 784 785 787 789 790 791 793 794 795 797 798 799 800 801 802 803 804 806 806 807 808 808 809 809 809 810 810 810 810 810 810 809 809 809 809 809 809
748 735 733 740 742 744 748 752 754 756 761 763 758 757 756 755 761 766 766 768 775 779 767 769 787 785 776 777 772 770 774 773 771 772 771 770 771 772 773 773 774 774 775 776 778 779 780 781 782 784 785 786 787 789 791 793 794 795 796 798 799 801 801 802 803 804 806 807 808 808 809 810 810 810 811 811 811 811 811 811 811 811 811 811 811 811
742 733 733 738 741 744 748 751 749 750 762 765 752 746 749 750 756 765 765 767 780 783 768 766 782 787 781 776 769 769 773 772 771 771 769 768 769 769 770 770 771 772 773 775 776 778 779 780 781 783 784 785 786 788 790 792 794 795 796 798 799 800 801 803 804 805 806 807 808 809 810 810 811 811 812 812 812 812 812 812 812 812 812 812 812 812
736 734 736 736 739 746 751 749 745 746 759 760 745 742 748 748 752 760 761 765 773 775 772 770 774 785 784 773 768 769 771 774 773 771 768 766 766 766 766 767 768 769 771 773 775 776 778 778 779 781 782 784 786 788 790 792 794 795 796 798 799 800 802 803 804 805 806 807 808 809 810 811 811 812 812 813 813 813 813 813 813 813 813 813 813 813
732 734 735 735 740 746 744 739 737 740 751 750 742 744 749 749 752 756 759 765 771 773 778 777 774 787 787 771 770 773 772 774 772 767 766 763 762 762 763 764 764 766 768 770 772 773 775 776 777 779 780 783 785 787 789 791 793 795 796 797 799 800 801 803 804 805 806 807 808 810 810 811 812 812 813 813 814 814 814 814 814 814 814 814 814 814
730 729 728 731 738 738 734 733 733 736 743 743 743 747 750 753 756 758 762 764 770 778 780 777 775 786 786 769 770 777 773 770 766 761 760 759 759 759 759 762 762 765 767 768 769 770 772 774 775 778 780 782 785 786 788 791 793 794 795 797 798 800 801 802 804 805 806 807 808 809 810 811 812 812 813 813 814 814 815 815 815 815 815 815 815 815
727 725 725 727 728 728 730 733 735 735 737 738 743 748 751 757 758 762 767 764 776 785 777 776 775 780 786 771 765 769 760 755 756 756 756 756 757 757 757 759 760 762 765 766 768 770 772 774 776 778 780 782 784 786 788 790 792 793 795 796 798 799 801 802 803 805 806 807 808 809 810 811 812 812 813 813 814 814 815 815 815 816 816 816 816 816
728 726 727 722 720 725 729 734 736 735 735 737 743 749 757 765 766 769 772 770 785 790 777 779 779 780 789 773 756 756 748 745 749 749 750 751 753 754 754 756 757 759 762 765 768 770 772 775 776 778 779 781 783 785 787 788 790 792 793 795 797 799 800 801 803 804 805 807 808 808 809 810 811 812 813 813 814 814 815 815 816 816 816 817 817 817
728 725 726 722 720 722 728 739 745 741 739 741 746 754 766 780 783 784 787 786 791 788 777 780 780 782 785 763 747 749 745 743 744 741 742 745 747 750 751 753 755 758 760 763 766 768 771 773 774 776 778 780 782 783 785 787 789 791 792 794 796 797 799 801 802 804 805 806 807 808 809 809 811 812 813 813 814 814 815 815 816 816 817 817 817 817
735 729 726 726 725 720 723 738 749 748 746 746 748 755 768 786 794 796 801 800 793 784 778 779 778 780 774 754 744 743 739 739 739 738 738 739 742 745 747 750 753 756 758 760 763 766 768 770 771 774 776 778 780 781 784 786 787 789 790 792 794 796 798 800 801 803 804 805 806 807 808 809 810 811 812 813 813 814 815 815 816 817 817 817 817 818
752 746 730 726 726 720 721 729 734 738 744 747 745 750 761 771 779 786 790 788 786 785 782 777 776 776 766 750 743 740 737 738 738 737 738 738 740 743 746 751 753 755 757 759 761 763 764 767 769 771 773 775 778 780 782 784 786 788 789 790 792 795 796 798 800 801 803 804 805 806 808 808 809 811 811 812 813 814 814 815 816 817 817 818 818 818
759 751 726 719 721 718 722 723 722 731 744 750 746 750 757 754 757 777 788 784 783 784 783 779 774 768 758 744 740 741 740 739 739 739 740 740 743 745 747 750 752 754 756 757 759 761 763 765 767 769 771 773 776 778 780 782 784 786 787 789 790 792 795 796 798 800 802 803 804 805 807 807 809 810 811 812 812 813 814 815 816 816 817 817 818 818
755 745 723 719 720 717 720 721 720 728 740 749 751 750 751 745 746 769 789 792 787 781 782 785 773 760 754 746 740 741 740 740 742 741 741 743 744 746 747 749 750 752 753 755 756 758 760 763 765 767 769 771 774 776 778 780 782 784 786 787 789 791 793 795 797 799 800 802 803 804 805 806 807 808 810 811 811 812 813 814 815 816 817 817 818 818
746 742 726 722 724 719 718 719 721 723 729 744 752 744 744 747 747 756 772 785 789 783 782 785 777 766 763 755 743 740 741 743 744 743 743 746 746 746 747 747 749 750 751 753 754 757 759 761 763 765 767 769 771 774 776 779 781 784 785 787 788 790 791 793 795 797 799 800 802 803 804 805 806 807 809 809 810 812 813 814 815 816 817 817 817 818
739 744 732 723 727 724 718 722 730 728 725 733 738 734 740 752 754 756 766 774 781 788 786 782 781 775 768 758 746 741 742 743 746 746 745 745 745 745 746 747 748 749 751 753 754 756 758 760 762 764 766 768 771 773 775 778 780 782 785 786 787 789 790 791 793 795 797 799 800 802 803 804 805 806 808 809 810 811 812 813 814 815 816 817 817 818
735 746 741 727 725 726 723 729 738 738 731 730 732 734 739 748 753 757 763 765 770 785 791 782 778 772 762 755 749 743 741 742 745 745 742 743 743 743 744 745 747 749 749 751 752 754 755 757 759 761 764 766 769 772 774 777 779 781 783 785 786 788 789 791 793 794 795 797 799 801 802 803 804 805 807 808 809 810 811 812 814 815 816 816 817 818
734 747 747 733 727 731 733 731 732 733 734 735 738 743 744 747 754 756 762 768 766 774 785 786 781 770 755 751 750 744 742 743 743 741 739 741 741 741 742 743 745 746 747 749 750 751 753 755 758 760 763 766 768 770 773 775 778 780 782 784 785 787 789 790 792 793 794 796 797 799 800 802 803 804 806 807 808 810 811 812 813 814 816 816 817 817
733 744 746 739 734 735 734 728 726 725 728 730 733 739 743 746 751 757 767 774 769 770 778 781 781 769 751 749 751 747 745 744 742 741 740 740 738 739 740 740 742 743 745 746 747 749 751 753 756 759 762 765 767 769 771 773 776 778 780 782 784 786 787 789 790 792 793 795 796 798 799 801 802 803 805 806 807 809 810 811 813 814 815 816 816 817
728 737 743 742 738 735 731 728 729 728 727 728 732 739 743 741 743 750 761 766 768 778 780 775 777 766 749 749 753 751 749 744 741 741 740 739 738 737 737 737 739 740 741 744 745 748 751 753 756 759 761 764 766 768 770 771 773 775 777 779 782 783 785 787 789 791 792 794 795 796 798 799 801 802 803 804 806 807 809 810 812 813 814 815 815 816
727 738 744 744 739 732 726 725 728 728 727 729 737 743 743 740 741 744 750 754 762 775 774 770 777 766 748 750 754 751 749 744 741 741 739 739 739 738 738 737 737 739 740 743 745 747 751 753 756 758 760 763 764 766 769 770 772 774 775 777 779 781 783 785 787 789 791 792 793 795 797 798 799 800 801 803 804 806 808 809 811 812 812 813 814 815
728 743 748 751 755 750 742 739 735 731 730 734 742 748 744 742 744 745 750 751 757 771 770 766 775 765 748 752 754 751 751 746 745 746 742 740 738 738 739 738 738 739 740 743 745 747 750 752 754 756 758 760 762 764 766 768 771 773 774 776 778 779 782 783 785 787 789 790 792 793 795 796 797 798 799 801 802 804 806 808 809 810 811 812 812 813
727 742 744 749 762 766 760 756 749 741 739 741 746 749 747 745 741 743 749 749 756 773 772 763 766 757 747 756 759 757 759 755 752 752 747 744 741 738 739 739 740 742 742 744 745 746 748 750 752 754 756 759 761 763 765 767 769 771 773 775 777 778 780 782 784 785 787 788 790 791 793 794 795 796 798 799 801 802 804 806 807 808 809 810 811 811
730 744 745 743 748 752 750 750 751 746 743 746 748 749 752 753 746 742 746 748 756 770 769 760 759 755 756 768 769 765 767 764 760 757 752 749 745 741 740 740 741 743 744 746 747 748 750 751 753 756 757 759 761 762 764 765 767 769 771 773 775 777 779 780 782 783 785 786 788 789 790 791 793 794 796 797 799 801 802 804 805 806 807 808 809 809
728 741 749 748 745 749 750 750 751 749 749 756 757 753 755 755 746 739 744 751 755 762 764 762 763 765 771 778 775 771 771 768 764 761 757 755 750 744 741 741 742 743 743 745 746 747 749 751 752 754 755 757 759 760 762 763 765 767 768 770 772 775 777 779 780 781 783 784 785 786 787 789 790 792 793 795 797 799 800 801 802 803 805 806 806 807
726 739 748 749 748 752 755 754 752 753 759 769 770 766 762 756 747 745 757 767 760 754 760 766 771 776 781 781 777 774 773 770 768 765 761 758 754 749 745 744 745 746 745 746 746 747 748 749 750 751 752 754 756 758 760 761 763 765 766 768 770 772 774 776 778 780 781 782 782 783 785 786 788 789 791 792 794 795 797 798 799 801 802 803 804 805
728 742 748 744 745 750 753 755 755 755 761 769 774 777 774 769 766 766 773 777 768 763 770 774 777 782 783 780 778 776 774 772 769 766 762 760 759 756 753 752 752 751 750 750 750 750 750 750 750 751 752 753 754 756 758 760 762 763 765 767 768 770 772 774 776 777 778 779 780 781 782 784 785 786 788 789 790 792 793 795 796 797 798 799 801 802
725 745 752 743 744 752 753 755 758 758 760 766 773 779 778 775 776 776 778 778 772 774 779 776 776 781 781 779 779 776 774 772 769 767 766 766 765 762 760 760 759 757 756 754 753 752 752 751 751 752 753 754 755 755 756 757 760 762 764 765 766 767 768 771 773 775 776 776 777 779 780 781 782 783 784 785 786 788 789 791 792 793 795 796 797 798
725 745 753 745 748 756 755 758 762 758 754 758 768 778 780 775 774 776 780 780 778 779 779 774 776 783 782 779 779 777 775 774 774 774 773 771 769 767 766 765 764 763 762 760 758 757 756 755 754 754 755 756 756 755 755 756 757 758 760 762 763 764 766 768 769 771 772 773 775 776 777 778 779 780 780 781 783 784 786 788 789 790 791 792 793 794
735 741 748 748 753 761 764 766 768 761 756 761 771 780 783 780 779 781 781 782 783 784 781 778 780 784 783 780 780 780 778 778 779 779 778 776 774 772 771 770 769 768 766 765 763 762 760 759 758 757 756 756 755 755 755 756 757 757 757 758 760 762 764 765 766 767 768 769 771 772 773 774 775 776 777 778 779 781 782 783 784 785 786 787 789 791
740 739 746 751 755 766 770 770 774 775 773 775 779 779 780 781 782 783 784 784 784 783 783 783 784 784 782 781 781 782 782 782 782 782 780 779 778 776 774 773 772 771 769 768 767 765 763 762 760 759 758 756 755 754 754 755 755 755 756 758 759 761 761 762 762 763 765 766 767 768 769 771 772 772 773 774 775 777 778 778 779 780 781 783 785 786
739 743 752 754 757 767 773 778 790 791 781 780 782 778 777 781 783 784 786 788 786 785 784 785 785 783 781 782 782 782 782 782 782 781 781 780 779 779 777 776 775 774 772 771 769 767 765 763 760 759 757 756 756 754 754 753 753 753 755 756 757 758 759 760 761 761 761 762 763 765 766 767 768 769 769 770 771 772 773 773 774 775 777 778 780 781
736 742 751 758 763 770 774 783 793 791 783 782 783 779 778 783 784 783 785 788 788 787 787 786 785 784 782 782 781 780 780 780 780 781 782 781 780 780 779 779 778 776 775 773 772 769 767 765 762 760 758 758 757 755 753 752 752 752 753 753 754 755 756 757 758 758 758 759 760 761 762 764 765 765 766 767 768 768 768 769 769 771 772 774 775 777
738 739 745 757 769 773 776 784 788 787 787 785 781 780 781 782 783 782 785 790 790 787 787 787 785 784 783 781 779 778 778 779 782 784 783 782 781 780 780 780 778 777 776 774 773 771 769 767 764 762 760 758 756 754 752 751 750 750 751 753 754 756 756 755 754 755 756 756 757 758 759 760 762 762 762 763 764 764 764 764 765 767 769 771 772 772
741 740 738 749 768 776 777 787 795 792 786 780 779 783 783 782 784 783 784 788 789 785 786 787 785 784 783 780 778 777 777 781 788 790 787 784 783 781 779 778 777 776 775 774 773 772 769 768 766 764 761 758 756 755 754 752 751 750 751 752 753 754 755 755 756 757 757 756 756 757 758 758 758 758 759 760 760 759 759 760 762 765 767 768 769 769
744 747 743 747 765 773 769 778 791 787 778 778 782 784 783 783 785 783 781 785 787 785 785 786 785 785 783 781 778 776 778 785 793 792 788 785 784 781 780 779 777 776 776 775 774 773 771 769 767 765 762 760 758 757 756 754 752 751 752 754 754 754 754 755 756 756 756 755 756 757 757 757 756 756 756 756 756 756 758 760 762 765 767 769 769 769
747 751 752 750 759 766 764 770 781 779 777 782 784 782 784 784 783 783 782 784 785 785 784 786 787 786 784 783 780 779 783 789 792 790 786 785 784 781 780 779 776 776 776 775 774 775 773 771 768 766 764 763 761 759 757 756 754 753 754 755 756 757 756 756 755 755 753 753 753 754 755 755 754 754 753 754 754 755 758 759 758 759 761 764 766 767
760 763 766 762 762 766 765 768 776 779 781 786 784 782 785 784 782 783 783 782 784 785 785 786 787 786 785 784 783 785 788 789 788 787 785 784 783 782 780 779 777 777 777 776 775 776 774 772 770 768 766 765 763 760 759 759 758 756 756 756 756 757 757 757 756 755 753 752 751 751 752 752 751 750 750 750 751 752 753 752 751 751 751 752 755 758
766 769 774 772 770 774 773 772 776 781 785 789 786 784 783 781 780 781 781 782 784 785 786 787 787 786 786 786 786 788 789 788 787 787 786 785 784 783 781 780 779 778 778 777 776 775 774 773 771 769 767 766 764 761 761 762 761 760 759 758 757 757 757 756 756 755 754 752 751 750 749 748 748 747 746 747 747 747 747 746 748 751 753 752 752 753
766 766 771 776 780 781 777 774 775 778 784 789 786 782 782 782 780 781 783 784 784 784 786 787 787 787 787 787 787 788 788 789 789 788 787 786 786 784 783 782 781 780 779 778 777 776 775 773 771 769 768 766 764 763 763 764 764 764 763 761 760 759 757 756 755 754 753 752 750 749 747 746 745 745 745 745 745 745 744 744 746 750 753 754 753 752
773 770 771 779 783 778 772 775 780 783 787 789 785 784 786 785 783 782 784 785 784 785 786 786 787 788 787 787 788 789 789 789 789 789 789 788 787 786 785 784 783 782 781 780 779 778 776 774 773 771 770 768 766 765 765 765 766 766 765 764 763 761 759 757 756 754 753 752 750 748 747 745 744 743 743 744 744 745 744 744 745 747 749 750 750 750
776 774 772 778 786 784 779 783 788 789 789 789 787 788 788 786 785 784 785 787 787 787 787 787 787 788 787 787 788 789 790 791 791 791 791 790 790 789 788 786 785 784 783 782 780 779 778 777 776 774 772 771 769 769 768 767 767 766 765 764 763 762 760 759 757 756 754 753 751 749 748 746 745 743 743 742 743 743 743 743 744 745 746 747 747 747
777 776 775 779 786 787 786 787 789 788 789 789 788 789 789 788 787 787 788 790 792 791 790 789 788 788 788 788 789 790 793 793 792 793 792 792 792 791 789 789 788 786 785 783 782 781 780 778 777 776 775 774 772 771 771 770 768 767 766 764 763 761 760 759 757 756 755 753 752 750 749 747 746 744 744 742 742 742 742 742 742 743 743 744 743 743
775 774 777 781 784 785 788 792 791 790 790 790 789 789 790 791 791 790 791 793 795 794 793 790 789 789 790 790 791 793 794 794 794 794 794 793 793 792 791 791 790 789 788 786 785 783 781 780 779 778 777 776 775 773 772 771 770 769 767 765 763 761 760 759 757 756 755 754 753 751 750 749 747 746 745 744 743 743 743 742 742 741 741 740 740 740
776 774 779 787 790 790 792 793 791 790 791 791 791 791 792 794 794 794 793 794 795 796 795 793 792 792 791 792 793 794 795 796 796 795 796 795 795 795 794 793 792 791 790 788 787 785 783 782 781 780 779 778 777 775 774 772 771 769 768 766 764 762 760 759 758 757 756 754 753 752 751 749 748 747 746 745 744 744 743 742 742 741 740 739 739 739
779 777 781 788 794 795 794 793 791 791 793 794 793 793 794 795 797 797 797 797 798 799 798 797 796 795 795 795 795 795 796 798 798 797 797 797 797 796 796 795 794 793 792 790 789 787 786 785 784 782 781 780 778 776 775 773 772 770 768 767 765 763 761 760 758 757 756 755 754 752 751 750 749 748 746 745 744 743 742 742 741 740 740 740 740 739
783 785 786 787 790 793 793 793 792 792 795 797 795 795 796 796 797 799 800 800 801 801 799 798 798 798 797 797 797 797 798 799 799 799 799 799 799 798 797 796 795 794 793 792 790 789 788 786 785 784 782 781 779 777 776 774 772 771 769 767 765 764 762 760 759 757 756 755 754 752 751 750 749 748 746 745 744 743 742 741 740 740 739 739 739 739
783 786 786 785 788 790 790 791 792 793 796 799 797 796 797 797 797 799 801 801 801 801 799 799 799 800 800 800 799 799 799 800 800 800 799 800 800 799 798 797 796 795 794 793 791 790 789 787 786 785 783 782 780 778 777 775 773 771 769 767 765 764 763 761 759 757 756 754 753 751 750 749 748 747 745 744 743 742 741 740 740 739 739 739 739 739